Ишкашим

Афганистан     36°42′17″N   71°34′12″E
темп.,
°C
ветер,
м/с
пор.,
м/с
влажн.,
%
обл.,
%
осадки,
мм/ч
давл.,
гПа
погр.,
м
10 августа, ср
ср1001:30+8з12460 0.0 101568
04:30+7з11520 0.0 101611
07:30+9зюз11410 0.0 1015712
10:30+15з21260 0.0 10101654
13:30+18з44224 0.0 10062417
16:30+17з53253 0.0 10071719
19:30+12з33341 0.0 1012710
22:30+10з22380 0.0 1013368
11 августа, чт
чт1101:30+9з11430 0.0 101433
04:30+7з01470 0.0 101410
07:30+10зюз11380 0.0 1013614
10:30+16з11250 0.0 10091460
13:30+20зсз43191 0.0 10052630
16:30+18з53234 0.0 10061722
19:30+13зсз44341 0.0 1011645
22:30+12з12380 0.0 1013101
12 августа, пт
пт1201:30+10зюз114494 0.0 101314
04:30+9зюз1146100 0.0 101411
07:30+11юз11375 0.0 1013617
10:30+17зсз12235 0.0 10091652
13:30+20зсз53195 0.0 10052802
16:30+18зсз53232 0.0 10061976
19:30+13з33340 0.0 1011728
22:30+11з22390 0.0 1014146
13 августа, сб
сб1301:30+9зюз11440 0.0 101417
04:30+8зсз01484 0.0 101510
07:30+11юз01373 0.0 1014644
10:30+17зсз112125 0.0 10091820
13:30+20з431899 0.0 10052702
16:30+18зсз532248 0.0 10061886
19:30+14з333255 0.0 1011663
22:30+12зюз22375 0.0 1012121
14 августа, вс
вс1401:30+10зюз114188 0.0 101246
04:30+11всв004092 0.0 1012127
07:30+13в013593 0.0 1012577
10:30+18зсз112623 0.0 10081701
13:30+21зсз431960 0.0 10032923
16:30+20зсз432084 0.0 10052348
19:30+16з332717 0.0 1009546
22:30+13з223330 0.0 1011103